GW1145 Weather Reports


time (UTC)temp
C
wind
direction
speed
KPH
gust
KPH
rain 1hr
cm
rain 24hr
cm
rain mn
cm
humidity
%
barometer
mb
20260506150645 6 282 0.0 0.0 0.28 1.47 0.36 92 1009.2
20260506150537 6 260 0.0 0.0 0.28 1.47 0.36 92 1009.2
20260506150432 6 260 0.0 0.0 0.28 1.45 0.36 92 1009.2
20260506150330 6 260 0.0 0.0 0.28 1.45 0.36 92 1009.1
20260506150223 6 260 0.0 0.0 0.10 1.45 0.36 92 1009.1
20260506150118 6 260 0.0 0.0 0.10 1.45 0.36 92 1009.1
20260506150012 6 274 0.0 0.0 0.10 1.42 0.36 92 1009.1
20260506145904 6 271 0.0 0.0 0.08 1.42 0.33 92 1009.1
20260506145801 6 273 0.0 0.0 0.08 1.42 0.33 92 1009.1
20260506145657 6 273 0.0 0.0 0.08 1.42 0.33 92 1009.1
20260506145550 6 221 0.0 0.0 0.08 1.42 0.33 93 1009.1
20260506145447 6 309 0.0 0.0 0.08 1.42 0.33 93 1009.1
20260506145340 6 309 0.0 0.0 0.08 1.42 0.33 93 1009.0
20260506145237 6 309 0.0 0.0 0.08 1.42 0.33 93 1009.0
20260506145130 6 309 0.0 0.0 0.08 1.42 0.33 93 1009.0
20260506145027 6 271 0.0 0.0 0.08 1.40 0.33 93 1009.0
20260506144659 6 271 0.0 0.0 0.08 1.40 0.30 92 1008.9
20260506144114 6 288 0.0 0.0 0.08 1.40 0.30 93 1008.9
20260506144007 6 288 0.0 0.0 0.08 1.40 0.30 93 1009.0
20260506143903 6 288 0.0 0.0 0.08 1.40 0.30 93 1008.9
20260506143757 6 288 0.0 0.0 0.08 1.40 0.28 93 1008.9
20260506143654 6 317 0.0 0.0 0.10 1.40 0.28 93 1008.9
20260506143547 6 297 0.0 0.0 0.13 1.40 0.28 93 1008.9
20260506143445 6 240 0.0 0.0 0.15 1.40 0.28 92 1008.9
20260506143126 6 342 0.0 0.0 0.15 1.40 0.28 92 1009.0
20260506143023 6 286 0.0 0.0 0.15 1.40 0.28 92 1008.9
20260506142916 6 254 0.0 0.0 0.15 1.40 0.28 92 1009.0
20260506142810 6 279 0.0 0.0 0.15 1.37 0.28 92 1009.0
20260506142703 6 273 0.0 0.0 0.15 1.37 0.28 92 1009.0
20260506142558 6 297 0.0 0.0 0.10 1.37 0.28 93 1009.1
20260506142237 6 223 0.0 0.0 0.10 1.37 0.28 93 1009.1
20260506142132 6 290 0.0 0.0 0.10 1.37 0.28 92 1009.1
20260506142025 6 277 0.0 0.0 0.10 1.35 0.28 93 1009.1
20260506141920 6 277 0.0 0.0 0.10 1.35 0.25 93 1009.1
20260506141813 6 215 0.0 0.0 0.10 1.35 0.25 93 1009.1
20260506141706 6 300 0.0 0.0 0.13 1.35 0.25 93 1009.1
20260506141558 6 270 0.0 0.0 0.15 1.35 0.25 93 1009.1
20260506141454 6 242 0.0 0.0 0.18 1.35 0.25 93 1009.1
20260506141350 6 279 0.0 0.0 0.18 1.35 0.25 92 1009.0
20260506141248 6 221 0.0 0.0 0.18 1.35 0.25 92 1009.1
20260506141143 6 221 0.0 0.0 0.18 1.35 0.25 92 1009.0
20260506141037 6 221 0.0 0.0 0.18 1.35 0.25 92 1009.0
20260506140930 6 263 0.0 0.0 0.18 1.32 0.25 92 1009.0
20260506140824 6 285 0.0 0.0 0.13 1.32 0.23 92 1009.0
20260506140720 6 290 0.0 0.0 0.13 1.32 0.23 92 1009.0
20260506140617 6 274 0.0 0.0 0.13 1.32 0.23 92 1009.0
20260506140510 6 271 0.0 0.0 0.13 1.32 0.23 92 1008.9
20260506140405 6 288 0.0 0.0 0.13 1.30 0.23 92 1008.9
20260506140300 6 244 0.0 0.0 0.13 1.30 0.23 92 1008.9
20260506140155 6 244 0.0 0.0 0.15 1.30 0.20 92 1008.9
20260506140051 6 240 0.0 0.0 0.18 1.30 0.20 92 1008.9
20260506135944 6 247 0.0 0.0 0.18 1.30 0.20 92 1008.9
20260506135842 6 268 0.0 0.0 0.18 1.30 0.20 92 1008.9
20260506135736 6 244 0.0 0.0 0.18 1.30 0.20 92 1008.9
20260506135146 6 247 0.0 0.0 0.10 1.30 0.18 93 1008.8
20260506135040 6 244 0.0 0.0 0.10 1.30 0.18 93 1008.8
20260506134936 6 275 0.0 0.0 0.10 1.27 0.18 93 1008.9
20260506134831 6 275 0.0 0.0 0.10 1.27 0.18 92 1008.8
20260506134728 6 273 0.0 0.0 0.13 1.27 0.18 92 1008.9
20260506134622 6 245 0.0 0.0 0.15 1.27 0.18 92 1008.9
20260506134514 6 245 0.0 0.0 0.18 1.27 0.18 92 1008.8
20260506134411 6 245 0.0 0.0 0.18 1.27 0.18 92 1008.8
20260506134304 6 245 0.0 0.0 0.18 1.27 0.18 92 1008.8
20260506134158 6 237 0.0 0.0 0.18 1.27 0.18 92 1008.8
20260506133836 6 233 0.0 0.0 0.08 1.24 0.15 92 1008.8
20260506133511 6 294 0.0 0.0 0.08 1.24 0.15 92 1008.9
20260506133406 6 294 0.0 0.0 0.08 1.22 0.15 92 1008.9
20260506133259 6 294 0.0 0.0 0.08 1.22 0.15 92 1008.9
20260506133153 6 294 0.0 0.0 0.08 1.22 0.13 92 1008.9
20260506133051 6 294 0.0 0.0 0.10 1.22 0.13 92 1008.9
20260506132949 6 294 0.0 0.0 0.10 1.22 0.13 92 1008.9
20260506132842 6 294 0.0 0.0 0.13 1.22 0.13 92 1008.9
20260506132738 6 294 0.0 0.0 0.15 1.22 0.13 92 1008.9
20260506132632 6 294 0.0 0.0 0.15 1.22 0.13 92 1008.9
20260506132307 6 258 0.0 0.0 0.15 1.22 0.13 92 1009.0
20260506132200 6 258 0.0 0.0 0.15 1.22 0.13 92 1008.9
20260506132053 6 258 0.0 0.0 0.15 1.22 0.13 92 1008.9
20260506131733 6 258 0.0 0.0 0.00 1.22 0.10 92 1008.9
20260506131627 6 258 0.0 0.0 0.00 1.22 0.10 92 1008.9
20260506131521 6 258 0.0 0.0 0.00 1.22 0.10 92 1008.9
20260506131414 6 258 0.0 0.0 0.00 1.19 0.10 92 1009.0
20260506131310 6 258 0.0 0.0 0.00 1.19 0.10 92 1008.9
20260506131208 6 258 0.0 0.0 0.00 1.19 0.08 92 1009.0
20260506131102 6 258 0.0 0.0 0.00 1.19 0.08 92 1009.0
20260506131000 6 295 0.0 0.0 0.00 1.19 0.08 92 1009.0
20260506130856 6 312 0.0 0.0 0.00 1.19 0.08 92 1009.0
20260506130749 6 312 0.0 0.0 0.00 1.19 0.08 92 1009.0
20260506130644 6 312 0.0 0.0 0.00 1.19 0.08 92 1009.0
20260506130320 6 257 0.0 0.0 0.00 1.19 0.08 91 1009.0
20260506130215 6 247 0.0 0.0 0.00 1.19 0.08 91 1009.0
20260506130111 6 247 0.0 0.0 0.00 1.19 0.08 91 1009.0
20260506130006 6 247 0.0 0.0 0.00 1.19 0.08 91 1008.9
20260506125901 6 247 0.0 0.0 0.00 1.19 0.08 91 1008.9
20260506125759 6 247 0.0 0.0 0.00 1.19 0.08 91 1009.0
20260506125656 6 246 0.0 0.0 0.00 1.19 0.08 91 1009.0
20260506125552 6 258 0.0 0.0 0.00 1.17 0.08 91 1009.0
20260506125448 6 302 0.0 0.0 0.00 1.17 0.08 91 1009.0
20260506125127 6 261 0.0 0.0 0.00 1.17 0.08 91 1008.9
20260506125024 6 261 0.0 0.0 0.00 1.17 0.08 91 1008.9
20260506124917 6 261 0.0 0.0 0.00 1.17 0.08 91 1008.9
20260506124814 6 261 0.0 0.0 0.00 1.17 0.08 91 1008.9
20260506124706 6 261 0.0 0.0 0.00 1.17 0.08 91 1008.8
20260506124602 6 261 0.0 0.0 0.00 1.17 0.08 91 1008.8
20260506124456 6 261 0.0 0.0 0.00 1.17 0.08 91 1008.8
20260506124129 6 244 0.0 0.0 0.00 1.17 0.08 91 1008.8
20260506124023 6 244 0.0 0.0 0.00 1.17 0.08 91 1008.9
20260506123701 6 175 0.0 0.0 0.00 1.14 0.08 90 1008.9
20260506123554 6 273 0.0 0.0 0.00 1.14 0.08 90 1008.9
20260506123450 6 259 0.0 0.0 0.00 1.14 0.05 91 1008.9
20260506123129 6 244 0.0 0.0 0.00 1.14 0.05 90 1008.9
20260506123025 6 244 0.0 0.0 0.00 1.14 0.05 90 1008.9
20260506122923 6 244 0.0 0.0 0.00 1.14 0.05 90 1008.8
20260506122819 6 244 0.0 0.0 0.00 1.14 0.05 90 1008.8
20260506122714 6 244 0.0 0.0 0.00 1.14 0.05 90 1008.8
20260506122355 6 244 0.0 0.0 0.00 1.14 0.05 90 1008.8
20260506122251 6 244 0.0 0.0 0.00 1.14 0.05 90 1008.8
20260506122147 6 244 0.0 0.0 0.00 1.14 0.05 90 1008.7
20260506122041 6 244 0.0 0.0 0.00 1.14 0.05 90 1008.8
20260506121936 6 244 0.0 0.0 0.00 1.14 0.05 90 1008.7
20260506121833 6 244 0.0 0.0 0.00 1.14 0.05 90 1008.8
20260506121514 7 244 0.0 0.0 0.00 1.14 0.05 90 1008.7
20260506121410 7 244 0.0 0.0 0.00 1.14 0.05 90 1008.7
20260506121307 7 279 0.0 0.0 0.00 1.14 0.05 90 1008.6
20260506121202 7 226 0.0 0.0 0.00 1.12 0.05 90 1008.7
20260506120841 7 268 0.0 0.0 0.00 1.12 0.03 89 1008.7
20260506120738 7 290 0.0 0.0 0.00 1.12 0.03 89 1008.6
20260506120632 7 290 0.0 0.0 0.00 1.12 0.03 89 1008.6
20260506120309 7 308 0.0 4.8 0.00 1.12 0.03 89 1008.6
20260506120205 7 229 0.0 3.2 0.00 1.12 0.03 89 1008.7
20260506120100 7 236 0.0 3.2 0.00 1.12 0.03 89 1008.7
20260506115955 7 218 0.0 3.2 0.00 1.12 0.03 89 1008.7
20260506115848 7 218 0.0 3.2 0.00 1.12 0.03 89 1008.7
20260506115742 7 303 0.0 1.6 0.00 1.12 0.03 89 1008.8
20260506115641 7 303 0.0 4.8 0.00 1.12 0.03 89 1008.8
20260506115534 7 300 0.0 4.8 0.00 1.12 0.03 88 1008.9
20260506115432 7 300 0.0 4.8 0.00 1.12 0.03 89 1008.9
20260506115327 7 309 0.0 4.8 0.00 1.12 0.03 89 1008.9
20260506115222 7 246 0.0 3.2 0.00 1.12 0.03 89 1008.9
20260506114856 7 250 0.0 0.0 0.00 1.12 0.03 88 1009.0
20260506114751 7 250 0.0 9.7 0.00 1.12 0.03 88 1009.0
20260506114426 7 250 0.0 9.7 0.00 1.12 0.03 88 1008.9
20260506114323 7 250 1.6 9.7 0.00 1.12 0.03 88 1009.0
20260506114220 7 209 0.0 9.7 0.00 1.12 0.03 88 1008.9
20260506113412 7 209 1.6 14.5 0.00 1.12 0.00 86 1008.7
20260506113308 7 202 1.6 14.5 0.00 1.12 0.00 86 1008.7
20260506113202 7 271 3.2 14.5 0.00 1.12 0.00 86 1008.6
20260506113056 7 273 3.2 14.5 0.00 1.12 0.00 86 1008.6
20260506112951 7 267 3.2 14.5 0.00 1.12 0.00 86 1008.5
20260506112847 7 247 1.6 14.5 0.00 1.12 0.00 86 1008.5
20260506112745 7 217 1.6 14.5 0.00 1.12 0.00 86 1008.5
20260506112640 7 239 1.6 14.5 0.00 1.12 0.00 86 1008.5
20260506112538 7 240 1.6 14.5 0.00 1.12 0.00 86 1008.5
20260506112434 7 262 1.6 14.5 0.00 1.12 0.00 86 1008.5
20260506112332 7 269 1.6 14.5 0.00 1.12 0.00 86 1008.4
20260506112229 7 227 1.6 14.5 0.00 1.12 0.00 86 1008.4
20260506112125 7 220 0.0 14.5 0.00 1.12 0.00 86 1008.4
20260506112023 8 313 0.0 9.7 0.00 1.12 0.00 86 1008.3
20260506111657 8 291 0.0 11.3 0.00 1.12 0.00 86 1008.3
20260506111552 8 254 0.0 11.3 0.00 1.12 0.00 86 1008.3
20260506111446 8 264 0.0 11.3 0.00 1.12 0.00 86 1008.3
20260506110900 8 297 0.0 0.0 0.00 1.12 0.00 88 1008.1
20260506110756 8 300 0.0 0.0 0.00 1.12 0.00 88 1008.0
20260506110653 8 294 0.0 0.0 0.00 1.12 0.00 89 1008.0
20260506110326 8 285 0.0 0.0 0.00 1.12 0.00 89 1007.9
20260506110222 8 202 0.0 0.0 0.00 1.12 0.00 90 1007.9
20260506110119 8 268 0.0 0.0 0.00 1.12 0.00 90 1007.8
20260506110016 8 315 0.0 1.6 0.00 1.12 0.00 90 1007.8
20260506105909 8 241 0.0 0.0 0.00 1.09 0.00 90 1007.8
20260506105802 8 225 0.0 0.0 0.00 1.09 0.00 90 1007.8
20260506105442 8 257 0.0 0.0 0.00 1.09 0.00 90 1007.7
20260506105339 8 300 0.0 0.0 0.00 1.09 0.00 91 1007.7
20260506105014 8 240 0.0 0.0 0.00 1.09 0.00 90 1007.6
20260506104911 8 245 0.0 0.0 0.00 1.09 0.00 90 1007.6
20260506104805 8 221 0.0 0.0 0.00 1.09 0.00 90 1007.6
20260506104702 8 250 0.0 0.0 0.00 1.09 0.00 90 1007.6
20260506104339 8 276 0.0 0.0 0.00 1.09 0.00 90 1007.5
20260506104234 8 205 0.0 0.0 0.00 1.09 0.00 90 1007.5
20260506104132 8 205 0.0 0.0 0.00 1.09 0.00 90 1007.5
20260506104028 8 205 0.0 0.0 0.00 1.09 0.00 91 1007.5
20260506103700 8 195 0.0 0.0 0.00 1.09 0.00 91 1007.4
20260506103556 8 195 0.0 0.0 0.00 1.09 0.00 91 1007.5
20260506103009 8 279 0.0 0.0 0.00 1.09 0.00 91 1007.4
20260506102901 8 225 0.0 0.0 0.00 1.09 0.00 91 1007.4
20260506102758 8 239 0.0 0.0 0.00 1.09 0.00 91 1007.4
20260506102656 8 216 0.0 0.0 0.00 1.09 0.00 91 1007.4
20260506102328 8 200 0.0 0.0 0.00 1.09 0.00 91 1007.5
20260506102224 8 238 0.0 0.0 0.00 1.09 0.00 91 1007.5
20260506102116 8 238 0.0 0.0 0.00 1.09 0.00 91 1007.5
20260506102012 8 242 0.0 0.0 0.00 1.09 0.00 91 1007.5
20260506101431 8 246 0.0 0.0 0.00 1.09 0.00 91 1007.3
20260506101328 8 246 0.0 0.0 0.00 1.09 0.00 91 1007.3
20260506101221 8 246 0.0 0.0 0.00 1.09 0.00 91 1007.3
20260506101116 8 246 0.0 0.0 0.00 1.09 0.00 91 1007.4
20260506101014 8 246 0.0 0.0 0.00 1.09 0.00 91 1007.3
20260506100907 8 246 0.0 0.0 0.00 1.09 0.00 91 1007.3
20260506100805 8 315 0.0 0.0 0.00 1.09 0.00 91 1007.3
20260506100700 8 206 0.0 0.0 0.00 1.09 0.00 91 1007.2
20260506100552 8 206 0.0 0.0 0.00 1.09 0.00 91 1007.2
20260506100444 8 206 0.0 0.0 0.00 1.09 0.00 91 1007.2
20260506100342 8 206 0.0 0.0 0.00 1.09 0.00 91 1007.2
20260506100240 8 206 0.0 0.0 0.00 1.09 0.00 91 1007.2
20260506100135 8 206 0.0 0.0 0.00 1.09 0.00 91 1007.2
20260506100032 8 206 0.0 0.0 0.00 1.09 0.00 91 1007.2
20260506095927 8 206 0.0 0.0 0.00 1.09 0.00 91 1007.1
20260506095822 8 210 0.0 0.0 0.00 1.09 0.00 91 1007.1
20260506095717 8 210 0.0 0.0 0.00 1.09 0.00 91 1007.1
20260506095614 8 210 0.0 0.0 0.00 1.09 0.00 91 1007.2
20260506095507 8 210 0.0 0.0 0.00 1.09 0.00 91 1007.2
20260506095139 8 268 0.0 0.0 0.00 1.09 0.00 91 1007.0
20260506095033 8 331 0.0 0.0 0.00 1.09 0.00 91 1007.1
20260506094710 8 249 0.0 0.0 0.00 1.09 0.00 91 1007.1
20260506094608 8 249 0.0 0.0 0.00 1.09 0.00 91 1007.1
20260506094506 8 249 0.0 0.0 0.00 1.09 0.00 91 1007.1
20260506094403 8 249 0.0 0.0 0.00 1.09 0.00 91 1007.2
20260506094259 8 200 0.0 0.0 0.00 1.09 0.00 91 1007.2
20260506094155 8 200 0.0 0.0 0.00 1.09 0.00 91 1007.1
20260506094050 8 200 0.0 0.0 0.00 1.09 0.00 91 1007.1
20260506093943 8 223 0.0 0.0 0.00 1.09 0.00 91 1007.2
20260506093839 8 211 0.0 0.0 0.00 1.09 0.00 91 1007.1
20260506093735 8 273 0.0 0.0 0.00 1.09 0.00 91 1007.2
20260506093630 8 273 0.0 0.0 0.00 1.09 0.00 91 1007.2
20260506093526 8 209 0.0 0.0 0.00 1.09 0.00 91 1007.2
20260506093421 8 277 0.0 0.0 0.00 1.09 0.00 91 1007.2
20260506093058 8 210 0.0 0.0 0.00 1.09 0.00 91 1007.2
20260506092956 8 236 0.0 0.0 0.00 1.09 0.00 91 1007.2
20260506092854 8 187 0.0 0.0 0.00 1.09 0.00 91 1007.1
20260506092750 8 196 0.0 0.0 0.00 1.09 0.00 91 1007.2
20260506092647 8 198 0.0 0.0 0.00 1.09 0.00 91 1007.3
20260506092540 8 213 0.0 0.0 0.00 1.09 0.00 91 1007.3
20260506092437 8 215 0.0 0.0 0.00 1.09 0.00 91 1007.3
20260506092335 8 267 0.0 0.0 0.00 1.09 0.00 91 1007.3
20260506092231 8 201 0.0 0.0 0.00 1.09 0.00 91 1007.1
20260506092126 8 217 0.0 0.0 0.00 1.09 0.00 91 1007.2
20260506092019 8 217 0.0 0.0 0.00 1.09 0.00 91 1007.3
20260506091916 8 249 0.0 0.0 0.00 1.09 0.00 91 1007.4
20260506091811 8 231 0.0 0.0 0.00 1.09 0.00 91 1007.5
20260506091453 8 252 0.0 0.0 0.00 1.09 0.00 91 1007.4
20260506091348 8 229 0.0 0.0 0.00 1.09 0.00 91 1007.4
20260506091242 8 275 0.0 0.0 0.00 1.09 0.00 91 1007.3
20260506091137 8 211 0.0 0.0 0.00 1.09 0.00 91 1007.4
20260506091032 8 265 0.0 0.0 0.00 1.09 0.00 91 1007.4
20260506090927 8 219 0.0 0.0 0.00 1.09 0.00 91 1007.5
20260506090820 8 205 0.0 0.0 0.00 1.09 0.00 91 1007.4
20260506090713 8 214 0.0 8.0 0.00 1.09 0.00 91 1007.4
20260506090611 8 200 0.0 8.0 0.00 1.09 0.00 91 1007.3
20260506090508 8 216 0.0 3.2 0.00 1.09 0.00 91 1007.3
20260506090404 8 307 0.0 1.6 0.00 1.09 0.00 91 1007.3
20260506090036 8 258 0.0 1.6 0.00 1.09 0.00 92 1007.2
20260506085931 8 202 0.0 0.0 0.00 1.09 0.00 92 1007.2
20260506085825 8 227 0.0 0.0 0.00 1.09 0.00 92 1007.2
20260506085721 8 249 0.0 0.0 0.00 1.09 0.00 92 1007.1
20260506085618 8 216 0.0 0.0 0.00 1.09 0.00 92 1007.1
20260506085513 8 269 0.0 9.7 0.00 1.09 0.00 92 1007.1
20260506085149 8 242 0.0 6.4 0.00 1.09 0.00 92 1007.1
20260506085042 8 179 0.0 0.0 0.00 1.09 0.00 92 1007.1
20260506084936 8 179 0.0 0.0 0.00 1.09 0.00 92 1007.2
20260506084832 8 223 0.0 0.0 0.00 1.09 0.00 92 1007.1
20260506084726 8 275 0.0 0.0 0.00 1.09 0.00 92 1007.1
20260506084623 8 211 0.0 0.0 0.00 1.09 0.00 92 1007.1
20260506084517 8 223 0.0 0.0 0.00 1.09 0.00 92 1007.1
20260506084149 8 204 0.0 0.0 0.00 1.09 0.00 92 1007.1
20260506084047 8 204 0.0 0.0 0.00 1.09 0.00 92 1007.1
20260506083944 8 204 0.0 0.0 0.00 1.09 0.00 92 1007.1
20260506083837 8 205 0.0 0.0 0.00 1.09 0.00 92 1007.1
20260506083735 8 271 0.0 0.0 0.00 1.09 0.00 92 1007.1
20260506083630 8 271 0.0 0.0 0.00 1.09 0.00 92 1007.1
20260506083526 8 271 0.0 0.0 0.00 1.09 0.00 92 1007.1
20260506083421 8 261 0.0 0.0 0.00 1.09 0.00 92 1007.0
20260506083317 8 261 0.0 0.0 0.00 1.09 0.00 92 1007.1
20260506082957 8 261 0.0 0.0 0.00 1.09 0.00 92 1007.0
20260506082635 8 261 0.0 0.0 0.00 1.09 0.00 92 1007.0
20260506082527 8 261 0.0 0.0 0.00 1.09 0.00 92 1007.0
20260506081943 8 261 0.0 0.0 0.00 1.09 0.00 92 1006.8
20260506081839 8 261 0.0 0.0 0.00 1.09 0.00 92 1006.9
20260506081737 8 261 0.0 0.0 0.00 1.09 0.00 92 1006.9
20260506081632 8 261 0.0 0.0 0.00 1.09 0.00 92 1006.8
20260506081529 8 261 0.0 0.0 0.00 1.09 0.00 92 1006.8
20260506081425 8 261 0.0 0.0 0.00 1.09 0.00 92 1006.8
20260506081322 8 261 0.0 0.0 0.00 1.09 0.00 92 1006.8
20260506081219 8 267 0.0 0.0 0.00 1.09 0.00 92 1006.8
20260506080852 8 267 0.0 0.0 0.00 1.09 0.00 92 1006.8
20260506080746 8 267 0.0 0.0 0.00 1.09 0.00 92 1006.8
20260506080640 8 236 0.0 0.0 0.00 1.09 0.00 93 1006.8
20260506080537 8 235 0.0 0.0 0.00 1.09 0.00 93 1006.7
20260506080215 8 190 0.0 0.0 0.00 1.09 0.00 93 1006.7
20260506080110 8 219 0.0 0.0 0.00 1.09 0.00 93 1006.7
20260506073439 7 223 0.0 0.0 0.00 1.09 0.00 93 1006.5
20260506073336 7 223 0.0 0.0 0.00 1.09 0.00 93 1006.5
20260506073233 7 223 0.0 0.0 0.00 1.09 0.00 93 1006.4
20260506072647 8 254 0.0 0.0 0.00 1.09 0.00 93 1006.4
20260506072318 8 254 0.0 0.0 0.00 1.09 0.00 92 1006.3
20260506072212 8 254 0.0 0.0 0.00 1.09 0.00 92 1006.3
20260506071843 8 254 0.0 0.0 0.00 1.09 0.00 92 1006.1
20260506071738 8 254 0.0 0.0 0.00 1.09 0.00 92 1006.1
20260506071634 8 254 0.0 0.0 0.00 1.09 0.00 92 1006.1
20260506071531 8 254 0.0 0.0 0.00 1.09 0.00 92 1006.1
20260506071205 8 254 0.0 0.0 0.00 1.09 0.00 92 1006.2
20260506071058 8 254 0.0 0.0 0.00 1.09 0.00 92 1006.2
20260506070731 8 254 0.0 0.0 0.00 1.09 0.00 91 1006.1
20260506070625 8 254 0.0 0.0 0.00 1.09 0.00 91 1006.1
20260506070305 8 254 0.0 0.0 0.00 1.09 0.00 91 1005.9
20260506070202 8 254 0.0 0.0 0.00 1.09 0.00 91 1005.8
20260506062450 8 203 0.0 0.0 0.00 1.09 0.00 89 1005.5
20260506062347 8 205 0.0 0.0 0.00 1.09 0.00 89 1005.5
20260506062242 8 221 0.0 0.0 0.00 1.09 0.00 89 1005.6
20260506062139 8 221 0.0 0.0 0.00 1.09 0.00 89 1005.6
20260506062035 8 218 0.0 0.0 0.00 1.09 0.00 89 1005.7
20260506061231 8 243 0.0 0.0 0.00 1.09 0.00 90 1005.6
20260506061129 8 243 0.0 0.0 0.00 1.09 0.00 90 1005.5
20260506061024 8 243 0.0 0.0 0.00 1.09 0.00 90 1005.5
20260506060702 8 243 0.0 0.0 0.00 1.09 0.00 91 1005.5
20260506060559 8 202 0.0 0.0 0.00 1.09 0.00 91 1005.5
20260506060454 8 234 0.0 0.0 0.00 1.09 0.00 91 1005.5
20260506060352 8 211 0.0 0.0 0.00 1.09 0.00 91 1005.6
20260506060249 8 195 0.0 0.0 0.00 1.09 0.00 91 1005.6
20260506060143 8 195 0.0 0.0 0.00 1.09 0.00 91 1005.6
20260506051411 9 238 0.0 0.0 0.00 1.09 0.00 93 1005.2
20260506051304 9 238 0.0 0.0 0.00 1.09 0.00 93 1005.1
20260506051158 9 238 0.0 0.0 0.00 1.09 0.00 93 1005.1
20260506051055 9 238 0.0 0.0 0.00 1.09 0.00 93 1005.1
20260506050948 9 238 0.0 0.0 0.00 1.09 0.00 93 1005.0
20260506050842 9 238 0.0 0.0 0.00 1.09 0.00 93 1005.0
20260506050739 9 238 0.0 0.0 0.00 1.09 0.00 93 1005.0
20260506050636 9 238 0.0 0.0 0.00 1.09 0.00 93 1005.0
20260506050529 9 238 0.0 0.0 0.00 1.09 0.00 93 1005.0
20260506050423 9 238 0.0 0.0 0.00 1.09 0.00 93 1005.0
20260506050321 9 238 0.0 0.0 0.00 1.09 0.00 93 1005.0
20260506045005 10 238 0.0 0.0 0.00 1.09 0.00 92 1004.8
20260506044902 10 238 0.0 0.0 0.00 1.09 0.00 92 1004.9
20260506044319 10 238 0.0 0.0 0.00 1.09 0.00 92 1004.9
20260506043956 10 238 0.0 0.0 0.00 1.09 0.00 92 1004.8
20260506043851 10 238 0.0 0.0 0.00 1.09 0.00 92 1004.8
20260506043531 10 238 0.0 0.0 0.00 1.09 0.00 92 1004.7
20260506043429 10 238 0.0 0.0 0.00 1.09 0.00 92 1004.7
20260506043326 10 238 0.0 0.0 0.00 1.09 0.00 92 1004.7
20260506043221 10 238 0.0 0.0 0.00 1.09 0.00 91 1004.8
20260506043117 10 239 0.0 0.0 0.00 1.09 0.00 91 1004.8
20260506043013 10 238 0.0 0.0 0.00 1.09 0.00 91 1004.8
20260506042652 10 205 0.0 0.0 0.00 1.09 0.00 91 1004.8
20260506042549 10 205 0.0 0.0 0.00 1.09 0.00 91 1004.8
20260506042446 10 205 0.0 0.0 0.00 1.09 0.00 91 1004.8
20260506042342 10 205 0.0 0.0 0.00 1.09 0.00 91 1004.8
20260506042238 10 205 0.0 0.0 0.00 1.09 0.00 91 1004.8
20260506042133 10 205 0.0 0.0 0.00 1.09 0.00 91 1004.9
20260506041807 10 205 0.0 0.0 0.00 1.09 0.00 91 1004.8
20260506041704 10 205 0.0 0.0 0.00 1.09 0.00 91 1004.7
20260506041602 10 205 0.0 0.0 0.00 1.09 0.00 91 1004.7
20260506041454 10 205 0.0 0.0 0.00 1.09 0.00 91 1004.6
20260506041349 10 205 0.0 0.0 0.00 1.09 0.00 91 1004.6
20260506041247 10 205 0.0 0.0 0.00 1.09 0.00 91 1004.6
20260506041145 10 205 0.0 0.0 0.00 1.09 0.00 91 1004.6
20260506040826 10 205 0.0 0.0 0.00 1.09 0.00 91 1004.4
20260506040723 10 205 0.0 0.0 0.00 1.09 0.00 92 1004.4
20260506040619 10 185 0.0 0.0 0.00 1.09 0.00 92 1004.4
20260506040300 10 204 0.0 0.0 0.00 1.09 0.00 92 1004.2
20260506040157 10 204 0.0 0.0 0.00 1.09 0.00 92 1004.2
20260506040055 10 204 0.0 0.0 0.00 1.09 0.00 92 1004.2
20260506035948 10 161 0.0 0.0 0.00 1.09 1.09 92 1004.2
20260506035359 10 150 0.0 0.0 0.00 1.09 1.09 93 1004.3
20260506035256 10 198 0.0 0.0 0.00 1.09 1.09 93 1004.4
20260506034713 10 233 0.0 0.0 0.00 1.09 1.09 93 1004.4
20260506034605 10 196 0.0 0.0 0.00 1.09 1.09 93 1004.4
20260506034501 10 168 0.0 0.0 0.00 1.09 1.09 93 1004.3
20260506034135 10 205 0.0 0.0 0.00 1.09 1.09 93 1004.3
20260506034030 10 205 0.0 0.0 0.00 1.09 1.09 93 1004.3
20260506033928 10 205 0.0 0.0 0.00 1.09 1.09 93 1004.3
20260506033600 10 205 0.0 0.0 0.00 1.09 1.09 93 1004.2
20260506033456 10 205 0.0 0.0 0.00 1.09 1.09 93 1004.2
20260506033349 10 205 0.0 0.0 0.00 1.09 1.09 93 1004.2
20260506033242 10 205 0.0 0.0 0.00 1.09 1.09 93 1004.1
20260506032917 10 205 0.0 0.0 0.00 1.09 1.09 93 1004.0
20260506032811 10 205 0.0 0.0 0.00 1.09 1.09 93 1004.1
20260506032451 10 205 0.0 0.0 0.00 1.09 1.09 93 1003.9
20260506032121 10 212 0.0 0.0 0.00 1.09 1.09 93 1003.9
20260506032019 10 212 0.0 0.0 0.00 1.09 1.09 93 1003.9
20260506031916 10 212 0.0 0.0 0.00 1.09 1.09 93 1003.8
20260506031812 10 265 0.0 0.0 0.00 1.09 1.09 93 1003.8
20260506031708 10 200 0.0 0.0 0.00 1.09 1.09 94 1003.8
20260506031601 10 200 0.0 0.0 0.00 1.09 1.09 94 1003.8
20260506031234 10 225 0.0 0.0 0.00 1.09 1.09 94 1003.7
20260506031128 10 226 0.0 0.0 0.00 1.09 1.09 94 1003.7
20260506031025 10 226 0.0 9.7 0.00 1.09 1.09 94 1003.7
20260506030920 10 244 0.0 9.7 0.00 1.09 1.09 94 1003.7
20260506030816 10 271 0.0 6.4 0.00 1.09 1.09 94 1003.7
20260506030715 10 271 0.0 6.4 0.00 1.09 1.09 94 1003.7
20260506030611 10 236 0.0 6.4 0.00 1.09 1.09 94 1003.6
20260506030509 10 209 0.0 0.0 0.00 1.09 1.09 94 1003.6
20260506030403 10 232 0.0 0.0 0.00 1.09 1.09 94 1003.6
20260506030038 10 172 0.0 0.0 0.00 1.09 1.09 94 1003.6
20260506025714 10 172 0.0 0.0 0.00 1.09 1.09 93 1003.6
20260506025610 10 172 0.0 0.0 0.00 1.09 1.09 93 1003.6
20260506025246 10 119 0.0 0.0 0.00 1.09 1.09 93 1003.5
20260506025144 10 119 0.0 0.0 0.00 1.09 1.09 93 1003.6
20260506025041 10 119 0.0 0.0 0.00 1.09 1.09 93 1003.5
20260506024939 10 119 0.0 0.0 0.00 1.09 1.09 93 1003.5
20260506024832 10 119 0.0 0.0 0.00 1.09 1.09 93 1003.5
20260506024250 10 119 0.0 0.0 0.00 1.09 1.09 93 1003.4
20260506024144 10 119 0.0 0.0 0.00 1.09 1.09 93 1003.3
20260506024037 10 119 0.0 0.0 0.00 1.09 1.09 93 1003.4
20260506023931 10 119 0.0 0.0 0.00 1.09 1.09 93 1003.4
20260506023828 10 119 0.0 0.0 0.00 1.09 1.09 93 1003.4
20260506023725 10 119 0.0 0.0 0.00 1.09 1.09 93 1003.4
20260506023618 11 119 0.0 0.0 0.00 1.09 1.09 93 1003.3
20260506023511 11 119 0.0 0.0 0.00 1.09 1.09 93 1003.3
20260506023406 11 119 0.0 0.0 0.00 1.09 1.09 93 1003.3
20260506023303 11 119 0.0 0.0 0.00 1.09 1.09 93 1003.3
20260506022937 11 119 0.0 0.0 0.00 1.09 1.09 93 1003.3
20260506022834 11 119 0.0 0.0 0.00 1.09 1.09 93 1003.3
20260506022729 11 119 0.0 0.0 0.00 1.09 1.09 92 1003.3
20260506022623 11 119 0.0 0.0 0.00 1.09 1.09 92 1003.2
20260506022518 11 119 0.0 0.0 0.00 1.09 1.09 93 1003.2
20260506022414 11 119 0.0 0.0 0.00 1.09 1.09 93 1003.2
20260506022311 11 119 0.0 0.0 0.00 1.09 1.09 93 1003.2
20260506022206 11 119 0.0 0.0 0.00 1.09 1.09 93 1003.3
20260506021617 11 119 0.0 0.0 0.00 1.09 1.09 92 1003.1
20260506021247 11 119 0.0 0.0 0.00 1.09 1.09 92 1003.1
20260506021142 11 119 0.0 0.0 0.00 1.09 1.09 92 1003.1
20260506020558 11 119 0.0 0.0 0.00 1.09 1.09 92 1003.0
20260506020454 11 119 0.0 0.0 0.00 1.09 1.09 92 1003.0
20260506020350 11 119 0.0 0.0 0.00 1.09 1.09 92 1003.0
20260506020246 11 119 0.0 0.0 0.00 1.09 1.09 92 1003.0
20260506020141 11 119 0.0 0.0 0.00 1.09 1.09 92 1003.0
20260506020036 11 119 0.0 0.0 0.00 1.09 1.09 92 1003.0
20260506015934 11 119 0.0 0.0 0.00 1.09 1.09 92 1003.0
20260506015827 11 119 0.0 0.0 0.00 1.09 1.09 92 1003.1
20260506015722 11 119 0.0 0.0 0.00 1.09 1.09 92 1003.1
20260506015618 11 119 0.0 0.0 0.00 1.09 1.09 92 1003.1
20260506015515 11 119 0.0 0.0 0.00 1.09 1.09 92 1003.0
20260506015411 11 119 0.0 0.0 0.00 1.09 1.09 92 1003.0
20260506015046 11 119 0.0 0.0 0.00 1.09 1.09 92 1002.9
20260506014944 11 119 0.0 0.0 0.00 1.09 1.09 92 1002.8
20260506014838 11 119 0.0 0.0 0.00 1.09 1.09 92 1002.9
20260506014513 11 119 0.0 0.0 0.00 1.09 1.09 92 1002.9
20260506014148 11 119 0.0 0.0 0.00 1.09 1.09 92 1002.9
20260506013600 11 180 0.0 0.0 0.08 1.09 1.09 92 1003.1
20260506013457 11 115 0.0 0.0 0.08 1.09 1.09 92 1003.2
20260506013351 11 156 0.0 0.0 0.08 1.09 1.09 92 1003.3
20260506013244 11 141 0.0 8.0 0.08 1.09 1.09 92 1003.2
20260506013140 11 175 0.0 8.0 0.10 1.09 1.09 92 1003.1
20260506013038 11 198 0.0 0.0 0.10 1.09 1.09 92 1003.2
20260506012933 11 254 0.0 0.0 0.13 1.09 1.09 92 1003.2
20260506012828 11 29 0.0 0.0 0.15 1.09 1.09 92 1003.1
20260506012722 11 72 0.0 0.0 0.15 1.09 1.09 92 1003.1
20260506012618 11 72 0.0 0.0 0.15 1.09 1.09 92 1003.1
20260506012516 12 72 0.0 0.0 0.15 1.09 1.09 92 1003.0
20260506012410 12 72 0.0 0.0 0.15 1.09 1.09 92 1003.0
20260506012308 12 72 0.0 0.0 0.15 1.09 1.09 92 1002.9
20260506012200 12 72 0.0 0.0 0.15 1.07 1.09 92 1002.8
20260506012054 12 72 0.0 0.0 0.00 1.07 1.07 92 1002.8
20260506011947 12 72 0.0 0.0 0.00 1.07 1.07 92 1002.8
20260506011842 12 140 0.0 0.0 0.00 1.07 1.07 92 1002.8
20260506011515 12 140 0.0 0.0 0.00 1.04 1.07 92 1002.9
20260506011410 12 140 0.0 0.0 0.00 1.04 1.07 92 1002.9
20260506011304 12 140 0.0 0.0 0.00 1.04 1.04 92 1002.6
20260506011156 12 140 0.0 0.0 0.00 1.04 1.04 92 1002.7
20260506010829 12 140 0.0 0.0 0.00 1.04 1.04 92 1002.7
20260506010724 12 140 0.0 0.0 0.00 1.04 1.04 92 1002.7
20260506010618 12 174 0.0 0.0 0.00 1.04 1.04 92 1002.6
20260506010514 12 174 0.0 0.0 0.00 1.04 1.04 92 1002.6
20260506010409 12 173 0.0 0.0 0.00 1.04 1.04 92 1002.6
20260506010305 12 173 0.0 0.0 0.00 1.04 1.04 92 1002.5
20260506010202 12 173 0.0 0.0 0.00 1.04 1.04 92 1002.6
20260506005838 12 158 0.0 0.0 0.00 1.04 1.04 93 1002.6
20260506005732 12 347 0.0 0.0 0.00 1.04 1.04 93 1002.5
20260506005628 12 0 0.0 0.0 0.00 1.04 1.04 93 1002.6
20260506005525 12 300 0.0 0.0 0.00 1.04 1.04 93 1002.6
20260506005420 12 215 0.0 0.0 0.00 1.04 1.04 93 1002.5
20260506005101 12 129 0.0 0.0 0.00 1.04 1.04 93 1002.4
20260506004956 12 124 0.0 0.0 0.00 1.04 1.04 93 1002.3
20260506004853 12 124 0.0 0.0 0.00 1.04 1.04 93 1002.2
20260506004750 12 61 0.0 0.0 0.00 1.02 1.04 93 1002.1
20260506004644 12 351 0.0 0.0 0.00 1.02 1.02 93 1002.1
20260506004540 12 351 0.0 0.0 0.00 1.02 1.02 93 1002.1
20260506004216 12 250 0.0 0.0 0.00 1.02 1.02 93 1002.0
20260506004111 12 332 0.0 0.0 0.00 1.02 1.02 94 1002.0
20260506004007 12 332 0.0 0.0 0.00 1.02 1.02 94 1002.0
20260506003905 12 332 0.0 0.0 0.00 1.02 1.02 94 1002.0
20260506003758 12 342 0.0 0.0 0.00 1.02 1.02 94 1001.9
20260506003652 12 284 0.0 0.0 0.00 1.02 1.02 94 1001.9
20260506003329 12 297 0.0 0.0 0.00 1.02 1.02 94 1001.8
20260506003228 12 297 0.0 0.0 0.00 1.02 1.02 94 1001.8
20260506002901 12 297 0.0 0.0 0.00 1.02 1.02 94 1001.9
20260506002757 12 297 0.0 0.0 0.00 1.02 1.02 94 1001.8
20260506002654 12 297 0.0 0.0 0.00 1.02 1.02 94 1001.7
20260506002551 12 298 0.0 0.0 0.00 1.02 1.02 94 1001.7
20260506002446 12 217 0.0 0.0 0.00 1.02 1.02 94 1001.8
20260506002339 12 108 0.0 0.0 0.00 1.02 1.02 94 1001.8
20260506002235 12 129 0.0 0.0 0.00 1.02 1.02 94 1001.9
20260506001907 12 129 0.0 0.0 0.00 1.02 1.02 94 1001.8
20260506001801 12 129 0.0 0.0 0.00 1.02 1.02 94 1001.8
20260506001655 12 129 0.0 0.0 0.00 1.02 1.02 94 1001.7
20260506001550 12 129 0.0 0.0 0.00 1.02 1.02 94 1001.8
20260506001446 12 129 0.0 0.0 0.00 1.02 1.02 94 1001.7
20260506001343 12 129 0.0 0.0 0.00 1.02 1.02 94 1001.7
20260506001023 13 271 0.0 0.0 0.00 1.02 1.02 94 1001.7
20260506000921 13 271 0.0 0.0 0.00 1.02 1.02 94 1001.7
20260506000817 13 271 0.0 0.0 0.00 1.02 1.02 94 1001.7
20260506000712 13 271 0.0 0.0 0.00 1.02 1.02 94 1001.7
20260506000611 13 271 0.0 0.0 0.00 1.02 1.02 94 1001.6
20260506000505 13 271 0.0 0.0 0.00 1.02 1.02 94 1001.7
20260506000401 13 271 0.0 0.0 0.00 1.02 1.02 94 1001.6
20260506000041 13 271 0.0 0.0 0.08 1.02 1.02 94 1001.6
20260505235937 13 271 0.0 0.0 0.08 1.02 1.02 94 1001.6
20260505235835 13 271 0.0 0.0 0.08 1.02 1.02 94 1001.5
20260505235733 13 271 0.0 0.0 0.08 1.02 1.02 94 1001.6
20260505235151 13 271 0.0 0.0 0.15 1.02 1.02 94 1001.4
20260505235047 13 271 0.0 0.0 0.18 1.02 1.02 94 1001.5
20260505234943 13 271 0.0 0.0 0.23 1.02 1.02 94 1001.5
20260505234840 13 271 0.0 0.0 0.28 1.02 1.02 94 1001.5
20260505234735 13 271 0.0 0.0 0.38 1.02 1.02 94 1001.4
20260505234631 13 271 0.0 0.0 0.61 1.02 1.02 94 1001.4
20260505234309 13 219 0.0 0.0 0.08 0.99 0.99 94 1001.4
20260505234206 13 219 0.0 0.0 0.08 0.99 0.99 94 1001.4
20260505234104 13 219 0.0 0.0 0.08 0.99 0.99 94 1001.3
20260505233959 13 219 0.0 0.0 0.10 0.99 0.99 94 1001.4
20260505233201 13 238 0.0 0.0 0.33 0.99 0.99 94 1001.4
20260505232838 13 238 0.0 0.0 0.00 0.97 0.97 94 1001.2
20260505232736 13 238 0.0 0.0 0.00 0.97 0.97 94 1001.2
20260505232631 13 238 0.0 0.0 0.00 0.94 0.97 94 1001.2
20260505232050 13 200 0.0 0.0 0.00 0.94 0.94 94 1001.0
20260505231946 13 200 0.0 0.0 0.00 0.94 0.94 94 1001.0
20260505231842 13 200 0.0 0.0 0.00 0.94 0.94 94 1001.0
20260505231736 13 211 0.0 0.0 0.00 0.94 0.94 94 1001.0
20260505231630 13 211 0.0 0.0 0.00 0.94 0.94 94 1001.0
20260505231528 13 211 0.0 0.0 0.00 0.94 0.94 94 1000.9
20260505231203 13 211 0.0 0.0 0.00 0.94 0.94 94 1000.7
20260505231057 13 211 0.0 0.0 0.00 0.94 0.94 94 1000.8
20260505230953 13 196 0.0 0.0 0.00 0.94 0.94 94 1000.7
20260505230410 13 224 0.0 0.0 0.00 0.94 0.94 93 1000.7
20260505230302 13 224 0.0 0.0 0.00 0.94 0.94 93 1000.6
20260505230156 13 224 0.0 0.0 0.00 0.94 0.94 93 1000.5
20260505230049 13 224 0.0 0.0 0.00 0.94 0.94 93 1000.5
20260505225944 13 224 0.0 0.0 0.00 0.94 0.94 93 1000.5
20260505225837 13 224 0.0 0.0 0.00 0.94 0.94 93 1000.5
20260505225730 13 224 0.0 0.0 0.00 0.94 0.94 93 1000.5
20260505225625 13 224 0.0 0.0 0.00 0.94 0.94 93 1000.5
20260505225520 13 234 0.0 0.0 0.00 0.94 0.94 93 1000.5
20260505225152 13 346 0.0 0.0 0.00 0.94 0.94 93 1000.4
20260505225049 13 346 0.0 0.0 0.00 0.94 0.94 93 1000.4
20260505224942 13 346 0.0 0.0 0.00 0.94 0.94 93 1000.4
20260505224837 13 55 0.0 0.0 0.00 0.94 0.94 93 1000.3
20260505224729 13 55 0.0 0.0 0.00 0.94 0.94 93 1000.2
20260505224626 13 55 0.0 0.0 0.00 0.94 0.94 93 1000.2
20260505224521 13 55 0.0 0.0 0.00 0.94 0.94 93 1000.0
20260505224414 13 55 0.0 0.0 0.00 0.94 0.94 93 1000.0
20260505224310 13 55 0.0 0.0 0.00 0.94 0.94 93 999.9
20260505223729 13 55 0.0 0.0 0.00 0.94 0.94 93 999.9
20260505223405 13 55 0.0 0.0 0.00 0.94 0.94 93 999.8
20260505223258 13 55 0.0 0.0 0.00 0.94 0.94 93 999.8
20260505223153 13 55 0.0 0.0 0.00 0.94 0.94 93 999.8
20260505223048 13 55 0.0 0.0 0.00 0.94 0.94 93 999.8
20260505222945 13 55 0.0 0.0 0.00 0.94 0.94 93 999.8
20260505222838 13 55 0.0 0.0 0.00 0.94 0.94 93 999.7
20260505222732 13 55 0.0 0.0 0.00 0.94 0.94 93 999.7
20260505222628 13 55 0.0 0.0 0.00 0.94 0.94 93 999.7
20260505222524 13 55 0.0 0.0 0.00 0.94 0.94 93 999.7
20260505222417 13 55 0.0 0.0 0.00 0.94 0.94 93 999.7
20260505222315 13 55 0.0 0.0 0.00 0.94 0.94 93 999.6
20260505222208 13 55 0.0 0.0 0.00 0.94 0.94 93 999.5
20260505222103 13 55 0.0 0.0 0.00 0.94 0.94 92 999.6
20260505221739 13 55 0.0 0.0 0.00 0.94 0.94 92 999.6
20260505221634 13 55 0.0 0.0 0.00 0.94 0.94 93 999.5
20260505221310 13 55 0.0 0.0 0.00 0.94 0.94 93 999.4
20260505221208 13 55 0.0 0.0 0.00 0.94 0.94 92 999.4
20260505221100 13 55 0.0 0.0 0.00 0.94 0.94 92 999.2
20260505220957 13 55 0.0 0.0 0.00 0.94 0.94 92 999.2
20260505220850 13 55 0.0 0.0 0.00 0.94 0.94 92 999.2
20260505220746 13 55 0.0 0.0 0.00 0.94 0.94 92 999.3
20260505220639 13 38 0.0 0.0 0.00 0.94 0.94 92 999.3
20260505220533 13 38 0.0 0.0 0.00 0.94 0.94 92 999.3
20260505220431 13 296 0.0 0.0 0.00 0.94 0.94 92 999.3
20260505220328 13 296 0.0 0.0 0.00 0.94 0.94 92 999.3
20260505220226 13 296 0.0 0.0 0.00 0.94 0.94 92 999.3
20260505220119 13 296 0.0 0.0 0.00 0.94 0.94 92 999.3
20260505215754 13 290 0.0 0.0 0.00 0.94 0.94 92 999.4
20260505215651 13 290 0.0 0.0 0.00 0.94 0.94 92 999.3
20260505215331 13 63 0.0 0.0 0.00 0.94 0.94 92 999.3
20260505215225 13 13 0.0 0.0 0.00 0.94 0.94 92 999.3
20260505215123 13 329 0.0 0.0 0.00 0.94 0.94 92 999.4
20260505215015 13 329 0.0 0.0 0.00 0.94 0.94 92 999.4
20260505214910 13 329 0.0 0.0 0.00 0.94 0.94 92 999.2
20260505214805 13 329 0.0 0.0 0.00 0.94 0.94 92 999.2
20260505214702 13 329 0.0 0.0 0.00 0.94 0.94 92 999.2
20260505214557 13 355 0.0 0.0 0.00 0.94 0.94 92 999.2
20260505214455 13 344 0.0 0.0 0.00 0.94 0.94 92 999.1
20260505214350 13 336 0.0 0.0 0.00 0.94 0.94 92 999.1
20260505214244 13 58 0.0 0.0 0.00 0.94 0.94 92 998.9
20260505214138 13 0 0.0 0.0 0.00 0.94 0.94 92 999.1
20260505214035 13 0 0.0 0.0 0.00 0.94 0.94 92 999.1
20260505213931 13 339 0.0 0.0 0.08 0.94 0.94 92 999.2
20260505213823 13 339 0.0 0.0 0.08 0.94 0.94 92 999.3
20260505213717 13 339 0.0 0.0 0.08 0.94 0.94 92 999.3
20260505213611 13 339 0.0 0.0 0.08 0.94 0.94 91 999.3
20260505213508 13 339 0.0 0.0 0.08 0.94 0.94 91 999.3
20260505213404 13 346 0.0 3.2 0.08 0.94 0.94 91 999.3
20260505212822 13 305 0.0 0.0 0.18 0.94 0.94 91 999.3
20260505212457 14 299 0.0 0.0 0.33 0.94 0.94 91 999.3
20260505211909 14 240 0.0 14.5 0.00 0.89 0.89 90 999.5
20260505211802 14 314 0.0 14.5 0.00 0.89 0.89 90 999.3
20260505211654 14 298 0.0 0.0 0.00 0.89 0.89 90 999.2
20260505211550 14 263 0.0 8.0 0.00 0.89 0.89 90 999.1
20260505211004 15 271 0.0 0.0 0.08 0.89 0.89 89 998.8
20260505210901 15 179 0.0 0.0 0.08 0.89 0.89 89 998.8
20260505210754 15 263 0.0 0.0 0.10 0.89 0.89 89 998.8
20260505210647 15 256 0.0 0.0 0.10 0.89 0.89 89 998.7
20260505210543 15 250 0.0 0.0 0.13 0.89 0.89 88 998.5
20260505210440 15 201 0.0 0.0 0.15 0.89 0.89 88 998.6
20260505210336 15 199 0.0 0.0 0.18 0.89 0.89 87 998.6
20260505210230 15 286 0.0 0.0 0.20 0.89 0.89 87 998.4
20260505210126 15 286 1.6 0.0 0.28 0.89 0.89 86 998.4
20260505210019 15 318 3.2 0.0 0.36 0.89 0.89 85 998.4
20260505205916 15 19 3.2 0.0 0.43 0.89 0.89 84 998.4
20260505205810 16 316 3.2 0.0 0.43 0.86 0.89 84 998.4
20260505205706 16 244 4.8 38.6 0.46 0.86 0.86 83 998.3
20260505205559 16 215 4.8 38.6 0.74 0.86 0.86 81 998.3
20260505205452 17 296 4.8 38.6 4.93 0.79 0.86 80 998.4
20260505205345 17 260 4.8 38.6 6.76 0.71 0.81 78 998.6
20260505205237 18 274 4.8 38.6 6.58 0.58 0.71 75 998.5
20260505205134 18 300 3.2 24.1 0.00 0.56 0.58 73 998.4
20260505205028 18 253 1.6 22.5 0.00 0.56 0.56 73 998.3
20260505204921 18 259 1.6 19.3 0.00 0.56 0.56 73 997.9
20260505204819 18 284 1.6 19.3 0.00 0.56 0.56 73 997.5
20260505204714 18 309 1.6 19.3 0.00 0.56 0.56 73 997.3
20260505204612 18 244 1.6 19.3 0.00 0.56 0.56 73 996.9
20260505204507 18 277 1.6 19.3 0.00 0.56 0.56 73 996.8
20260505204403 18 175 1.6 19.3 0.00 0.56 0.56 73 996.8
20260505204257 18 235 0.0 16.1 0.00 0.56 0.56 73 996.9
20260505203933 18 267 1.6 16.1 0.00 0.56 0.56 74 996.8
20260505203352 18 276 1.6 0.0 0.00 0.56 0.56 75 997.0
20260505203245 18 225 3.2 24.1 0.00 0.56 0.56 75 997.1
20260505203138 18 280 4.8 24.1 0.00 0.56 0.56 75 997.1
20260505203032 18 227 3.2 24.1 0.00 0.56 0.56 76 997.2
20260505202929 18 210 3.2 24.1 0.00 0.56 0.56 76 997.2
20260505202600 18 226 3.2 25.7 0.00 0.56 0.56 76 997.0
20260505202455 18 226 3.2 25.7 0.00 0.56 0.56 76 996.9
20260505202134 18 177 0.0 22.5 0.00 0.56 0.56 78 996.9
20260505202029 18 241 1.6 19.3 0.00 0.56 0.56 78 997.0
20260505201927 18 157 1.6 19.3 0.00 0.56 0.56 79 997.1
20260505201824 18 242 1.6 19.3 0.00 0.56 0.56 79 997.1
20260505201719 18 205 1.6 19.3 0.00 0.56 0.56 79 997.1
20260505201615 18 242 1.6 19.3 0.00 0.56 0.56 79 997.0
20260505200807 18 227 0.0 14.5 0.00 0.56 0.56 81 997.4
20260505200705 18 220 0.0 14.5 0.00 0.56 0.56 81 997.4
20260505200559 18 196 0.0 14.5 0.00 0.56 0.56 82 997.3
20260505200457 18 208 0.0 1.6 0.00 0.56 0.56 83 997.4
20260505200352 18 313 0.0 0.0 0.00 0.56 0.56 82 997.4
20260505200026 18 202 0.0 17.7 0.00 0.56 0.56 83 997.3
20260505195922 18 194 0.0 8.0 0.00 0.56 0.56 84 997.2
20260505195816 18 269 0.0 8.0 0.00 0.56 0.56 84 997.2
20260505195446 18 305 0.0 0.0 0.00 0.56 0.56 84 997.4
20260505195339 18 218 0.0 0.0 0.00 0.56 0.56 84 997.4
20260505195233 18 215 0.0 17.7 0.00 0.56 0.56 84 997.5
20260505195131 17 232 0.0 17.7 0.00 0.56 0.56 84 997.6
20260505195027 17 229 0.0 0.0 0.00 0.56 0.56 84 997.6
20260505194924 17 213 0.0 0.0 0.00 0.56 0.56 84 997.5
20260505194559 17 289 0.0 12.9 0.00 0.56 0.56 85 997.7
20260505194235 17 313 0.0 12.9 0.00 0.56 0.56 85 997.8
20260505194131 17 222 0.0 12.9 0.00 0.56 0.56 85 997.8
20260505194025 17 213 0.0 12.9 0.00 0.56 0.56 85 997.9
20260505193922 17 234 0.0 0.0 0.00 0.56 0.56 86 997.9
20260505193559 17 220 0.0 0.0 0.00 0.56 0.56 88 997.9
20260505193456 17 193 0.0 0.0 0.00 0.56 0.56 87 997.9
20260505193349 17 219 0.0 0.0 0.00 0.56 0.56 87 997.8
20260505193243 17 174 0.0 0.0 0.00 0.56 0.56 87 997.9
20260505192918 17 211 0.0 11.3 0.00 0.56 0.56 88 997.9
20260505192812 17 198 0.0 11.3 0.00 0.56 0.56 88 998.0
20260505192707 17 258 0.0 11.3 0.00 0.56 0.56 89 997.9
20260505192602 17 198 0.0 9.7 0.00 0.56 0.56 89 997.9
20260505192456 17 233 0.0 8.0 0.00 0.56 0.56 89 998.0
20260505192353 17 329 0.0 0.0 0.00 0.56 0.56 89 997.9
20260505191812 16 257 0.0 0.0 0.00 0.56 0.56 91 998.1
20260505191705 16 161 0.0 0.0 0.00 0.56 0.56 91 998.2
20260505191342 16 177 0.0 1.6 0.00 0.56 0.56 91 998.3
20260505191240 16 198 0.0 6.4 0.00 0.56 0.56 91 998.4
20260505190655 16 207 0.0 4.8 0.00 0.56 0.56 92 998.5
20260505190550 16 183 0.0 0.0 0.00 0.56 0.56 92 998.4
20260505190448 16 263 0.0 0.0 0.00 0.56 0.56 93 998.4
20260505190122 15 134 0.0 8.0 0.00 0.56 0.56 93 998.4
20260505190018 15 140 0.0 8.0 0.00 0.56 0.56 93 998.5
20260505185651 15 237 0.0 0.0 0.00 0.56 0.56 93 998.5
20260505185547 15 284 0.0 0.0 0.00 0.56 0.56 93 998.5
20260505185441 15 297 0.0 6.4 0.00 0.56 0.56 93 998.5
20260505185334 15 188 0.0 6.4 0.00 0.56 0.56 93 998.5
20260505185227 15 218 0.0 3.2 0.00 0.56 0.56 93 998.5
20260505185120 15 228 0.0 3.2 0.00 0.56 0.56 93 998.5
20260505185018 15 193 0.0 1.6 0.00 0.56 0.56 93 998.6
20260505184432 15 200 0.0 0.0 0.00 0.56 0.56 93 998.7
20260505184104 15 205 0.0 0.0 0.00 0.56 0.56 93 998.8
20260505183740 15 186 0.0 0.0 0.00 0.56 0.56 93 998.8
20260505183637 15 186 0.0 0.0 0.00 0.56 0.56 93 998.8
20260505183311 15 209 0.0 0.0 0.00 0.56 0.56 94 998.9
20260505182945 15 100 0.0 0.0 0.00 0.56 0.56 93 998.9
20260505182842 15 100 0.0 0.0 0.00 0.56 0.56 93 998.9
20260505182739 14 100 0.0 0.0 0.00 0.56 0.56 93 998.9
20260505182633 14 100 0.0 0.0 0.00 0.56 0.56 93 998.9
20260505182527 15 100 0.0 0.0 0.00 0.56 0.56 93 999.0
20260505182202 14 159 0.0 0.0 0.00 0.56 0.56 94 999.0
20260505182057 14 159 0.0 0.0 0.00 0.56 0.56 94 999.1
20260505181950 14 159 0.0 0.0 0.00 0.56 0.56 94 999.1
20260505181623 14 159 0.0 0.0 0.00 0.56 0.56 94 999.1
20260505181521 14 159 0.0 0.0 0.00 0.56 0.56 94 999.1
20260505181153 13 159 0.0 0.0 0.00 0.56 0.56 93 999.0
20260505181047 13 159 0.0 0.0 0.00 0.56 0.56 93 999.1
20260505180942 13 159 0.0 0.0 0.00 0.56 0.56 93 999.1
20260505180622 13 159 0.0 0.0 0.00 0.56 0.56 93 999.2
20260505180515 13 159 0.0 0.0 0.00 0.56 0.56 93 999.2
20260505180410 13 159 0.0 0.0 0.00 0.56 0.56 93 999.2
20260505180045 13 159 0.0 0.0 0.00 0.56 0.56 93 999.3
20260505175942 13 159 0.0 0.0 0.00 0.56 0.56 93 999.3
20260505175838 13 159 0.0 0.0 0.00 0.56 0.56 93 999.3
20260505175735 13 159 0.0 0.0 0.08 0.56 0.56 93 999.3
20260505175631 13 159 0.0 0.0 0.08 0.56 0.56 93 999.3
20260505175529 13 159 0.0 0.0 0.08 0.56 0.56 93 999.3
20260505175421 13 159 0.0 0.0 0.08 0.56 0.56 93 999.3
20260505175318 13 157 0.0 0.0 0.08 0.56 0.56 93 999.2
20260505175213 13 157 0.0 0.0 0.08 0.56 0.56 93 999.2
20260505175108 13 157 0.0 0.0 0.10 0.56 0.56 93 999.3
20260505175005 13 150 0.0 0.0 0.13 0.56 0.56 93 999.4
20260505174857 13 180 0.0 0.0 0.13 0.56 0.56 93 999.4
20260505174755 13 180 0.0 0.0 0.18 0.56 0.56 93 999.4
20260505174433 13 169 0.0 0.0 0.23 0.56 0.56 93 999.5
20260505174106 13 169 0.0 0.0 0.23 0.56 0.56 93 999.4
20260505174002 13 169 0.0 0.0 0.30 0.56 0.56 93 999.4
20260505173854 13 169 0.0 0.0 0.33 0.56 0.56 93 999.4
20260505173750 13 169 0.0 0.0 0.33 0.56 0.56 93 999.5
20260505173646 13 169 0.0 0.0 0.33 0.53 0.56 93 999.5
20260505173542 13 169 0.0 0.0 0.36 0.53 0.53 93 999.6
20260505173435 13 169 0.0 0.0 0.56 0.53 0.53 93 999.6
20260505173332 13 169 0.0 0.0 0.74 0.51 0.53 92 999.6
20260505173228 13 169 0.0 0.0 0.74 0.48 0.51 92 999.6
20260505173120 13 169 0.0 0.0 0.74 0.48 0.51 92 999.5
20260505173015 13 169 0.0 0.0 0.08 0.46 0.48 92 999.5
20260505172432 13 169 0.0 0.0 0.10 0.46 0.46 92 999.5
20260505172326 13 169 0.0 0.0 0.13 0.46 0.46 92 999.5
20260505171743 13 168 0.0 0.0 0.28 0.46 0.46 92 999.4
20260505171640 13 168 0.0 0.0 0.28 0.46 0.46 92 999.5
20260505171537 13 161 0.0 0.0 0.28 0.46 0.46 92 999.5
20260505171434 13 161 0.0 0.0 0.28 0.46 0.46 92 999.5
20260505171332 13 161 0.0 0.0 0.38 0.46 0.46 92 999.5
20260505171229 13 161 0.0 0.0 0.48 0.43 0.46 91 999.6
20260505170907 13 221 0.0 0.0 1.07 0.38 0.43 91 999.7
20260505170802 13 228 0.0 0.0 1.07 0.38 0.41 91 999.8
20260505170657 13 228 0.0 0.0 0.84 0.36 0.38 91 999.8
20260505170555 13 205 0.0 0.0 0.56 0.36 0.36 91 999.8
20260505170451 13 219 0.0 0.0 0.56 0.36 0.36 91 999.8
20260505170346 13 258 0.0 0.0 1.02 0.33 0.36 91 999.7
20260505170242 13 201 0.0 0.0 0.56 0.30 0.33 91 999.6
20260505165921 13 201 0.0 0.0 0.56 0.28 0.28 90 999.8
20260505165816 13 217 0.0 0.0 0.74 0.28 0.28 90 999.8
20260505165454 13 238 0.0 0.0 2.06 0.18 0.23 90 999.9
20260505165351 13 244 0.0 0.0 2.24 0.15 0.18 90 1000.0
20260505165246 13 246 0.0 0.0 0.23 0.15 0.15 90 1000.1
20260505164923 13 268 0.0 0.0 0.28 0.13 0.15 89 999.8
20260505164816 14 250 0.0 0.0 0.28 0.13 0.15 89 999.7
20260505164714 14 180 0.0 0.0 0.36 0.13 0.13 88 999.7
20260505164611 14 244 0.0 0.0 0.41 0.13 0.13 88 999.7
20260505164506 14 215 0.0 0.0 0.41 0.10 0.13 88 999.8
20260505164401 14 209 0.0 9.7 0.41 0.10 0.10 88 999.9
20260505164259 14 213 0.0 9.7 0.36 0.10 0.10 87 999.9
20260505164156 14 231 0.0 0.0 0.36 0.08 0.10 87 999.8
20260505164053 14 237 0.0 0.0 0.38 0.08 0.08 87 999.9
20260505163728 15 214 0.0 0.0 0.66 0.05 0.08 86 999.8
20260505163623 15 214 0.0 0.0 0.66 0.05 0.08 85 999.8
20260505163520 15 267 0.0 0.0 0.30 0.03 0.05 85 999.7
20260505163416 15 205 0.0 16.1 0.30 0.03 0.05 84 999.7
20260505163311 15 252 0.0 16.1 0.20 0.03 0.03 84 999.8
20260505163209 15 257 0.0 14.5 0.20 0.03 0.03 83 999.9
20260505163107 15 214 0.0 14.5 0.20 0.00 0.03 83 999.9
20260505163000 15 205 0.0 14.5 0.00 0.00 0.00 82 999.8
20260505162855 15 204 0.0 14.5 0.00 0.00 0.00 82 999.8
20260505162753 15 212 0.0 14.5 0.00 0.00 0.00 81 999.7
20260505162650 15 263 0.0 3.2 0.00 0.00 0.00 81 999.7
20260505162545 16 226 0.0 3.2 0.00 0.00 0.00 81 999.7
20260505162440 16 209 0.0 0.0 0.00 0.00 0.00 80 999.7
20260505162334 16 224 0.0 14.5 0.00 0.00 0.00 79 999.8
20260505162229 16 221 0.0 14.5 0.00 0.00 0.00 79 999.8
20260505162122 16 182 0.0 11.3 0.00 0.00 0.00 79 999.8
20260505162017 16 220 0.0 12.9 0.00 0.00 0.00 77 999.8
20260505161914 16 217 0.0 12.9 0.00 0.00 0.00 77 999.8
20260505161812 16 194 0.0 0.0 0.00 0.00 0.00 77 999.8
20260505161706 16 171 0.0 12.9 0.00 0.00 0.00 76 999.9
20260505161600 16 222 0.0 12.9 0.00 0.00 0.00 76 999.9
20260505161456 16 180 0.0 0.0 0.00 0.00 0.00 75 999.9
20260505161353 16 198 0.0 1.6 0.00 0.00 0.00 75 999.9
20260505161026 16 213 0.0 14.5 0.00 0.00 0.00 74 999.9
20260505160920 16 205 0.0 14.5 0.00 0.00 0.00 74 1000.0
20260505160814 16 196 0.0 14.5 0.00 0.00 0.00 73 999.9
20260505160710 17 214 0.0 14.5 0.00 0.00 0.00 73 1000.0
20260505160604 17 221 0.0 14.5 0.00 0.00 0.00 73 1000.0
20260505160501 17 211 0.0 14.5 0.00 0.00 0.00 73 1000.0
20260505160140 17 232 0.0 0.0 0.00 0.00 0.00 72 1000.0
20260505153332 18 252 0.0 8.0 0.00 0.00 0.00 60 999.8
20260505153224 18 288 0.0 0.0 0.00 0.00 0.00 60 999.8
20260505153117 18 155 0.0 0.0 0.00 0.00 0.00 60 999.8
20260505153013 18 218 0.0 0.0 0.00 0.00 0.00 60 999.8
20260505152908 18 192 0.0 0.0 0.00 0.00 0.00 60 999.7
20260505152803 18 248 0.0 1.6 0.00 0.00 0.00 60 999.8
20260505152655 18 217 0.0 1.6 0.00 0.00 0.00 60 999.8
20260505152550 18 222 0.0 0.0 0.00 0.00 0.00 60 999.8
20260505152447 18 209 0.0 0.0 0.00 0.00 0.00 60 999.8
20260505152344 18 189 0.0 0.0 0.00 0.00 0.00 61 999.8
20260505152240 18 202 0.0 0.0 0.00 0.00 0.00 61 999.8
20260505152135 17 213 0.0 0.0 0.00 0.00 0.00 61 999.8
20260505152033 17 183 0.0 0.0 0.00 0.00 0.00 62 999.8
20260505151926 17 140 0.0 16.1 0.00 0.00 0.00 61 999.8
20260505151823 17 222 0.0 16.1 0.00 0.00 0.00 61 999.8
20260505151717 17 163 0.0 0.0 0.00 0.00 0.00 61 999.8
20260505151610 17 227 0.0 0.0 0.00 0.00 0.00 62 999.9
20260505151506 17 235 0.0 0.0 0.00 0.00 0.00 62 1000.0
20260505151403 17 223 0.0 11.3 0.00 0.00 0.00 61 1000.0
20260505151259 17 295 0.0 11.3 0.00 0.00 0.00 61 1000.1
20260505151153 17 165 0.0 11.3 0.00 0.00 0.00 62 1000.1